Location: Colle Pacifico
(43.5333°N, 13.3167°E)
Time: 10:23:51
(UTC+00:00)

STARLINK-36 - Pass Details

Date: 07 June 2020
Orbit: 434 x 435 km, 53.0° (Epoch: 05 July)

Event Time Altitude Azimuth Distance (km) Brightness Sun altitude
Exits shadow 00:53:37 18° 125° (SE) 1,160 5.2 -19.2°
Drops below altitude 10° 00:55:44 10° 87° (E) 1,544 6.3 -19.0°
Enters shadow 01:51:15 -72° 236° (SW) 12,546 10.4 -13.6°
Maximum altitude 02:30:06 63° 328° (NNW) 493 3.4 -8.8°
